• In Netherlands
  • List of Countries
  • For 7 days
  • Water Temperature
  • Satellite Maps
  • Weather Map
  • Weather Widgets
  • user-avatar
    Login

    Hourly Weather San Luis

    Today, 23 August, Wednesday

    Time Temperature Precipitation Wind Pressure Humidity
    00:00 +17°C° 0 mm 8 mps 691 mmHg 22%
    01:00 +16°C° 0 mm 8 mps 692 mmHg 24%
    02:00 +15°C° 0 mm 7 mps 692 mmHg 27%
    03:00 +12°C° 0 mm 7 mps 693 mmHg 32%
    04:00 +11°C° 0 mm 8 mps 694 mmHg 37%
    05:00 +9°C° 0 mm 8 mps 694 mmHg 42%
    06:00 +9°C° 0 mm 8 mps 695 mmHg 41%
    07:00 +9°C° 0 mm 8 mps 696 mmHg 39%
    08:00 +8°C° 0 mm 7 mps 697 mmHg 38%
    09:00 +10°C° 0 mm 7 mps 698 mmHg 33%
    10:00 +12°C° 0 mm 7 mps 698 mmHg 29%
    11:00 +14°C° 0 mm 7 mps 699 mmHg 25%
    12:00 +15°C° 0 mm 6 mps 698 mmHg 23%
    13:00 +17°C° 0 mm 5 mps 698 mmHg 22%
    14:00 +19°C° 0 mm 4 mps 697 mmHg 20%
    15:00 +19°C° 0 mm 4 mps 697 mmHg 20%
    16:00 +19°C° 0 mm 4 mps 696 mmHg 20%
    17:00 +19°C° 0 mm 5 mps 696 mmHg 20%
    18:00 +17°C° 0 mm 5 mps 695 mmHg 24%
    19:00 +15°C° 0 mm 5 mps 695 mmHg 28%
    20:00 +13°C° 0 mm 5 mps 695 mmHg 33%
    21:00 +13°C° 0 mm 5 mps 695 mmHg 33%
    22:00 +13°C° 0 mm 4 mps 695 mmHg 34%
    23:00 +13°C° 0 mm 4 mps 694 mmHg 35%

    Tomorrow, 24 August, Thursday

    Time Temperature Precipitation Wind Pressure Humidity
    00:00 +13°C° 0 mm 4 mps 694 mmHg 34%
    01:00 +13°C° 0 mm 4 mps 693 mmHg 33%
    02:00 +12°C° 0 mm 4 mps 693 mmHg 31%
    03:00 +12°C° 0 mm 4 mps 692 mmHg 35%
    04:00 +12°C° 0 mm 5 mps 692 mmHg 38%
    05:00 +12°C° 0 mm 5 mps 692 mmHg 42%
    06:00 +13°C° 0 mm 5 mps 692 mmHg 42%
    07:00 +14°C° 0 mm 5 mps 692 mmHg 43%
    08:00 +15°C° 0 mm 5 mps 692 mmHg 43%
    09:00 +17°C° 0 mm 6 mps 693 mmHg 36%
    10:00 +21°C° 0 mm 8 mps 693 mmHg 29%
    11:00 +24°C° 0 mm 9 mps 694 mmHg 22%
    12:00 +26°C° 0 mm 9 mps 693 mmHg 20%
    13:00 +27°C° 0 mm 9 mps 693 mmHg 17%
    14:00 +28°C° 0 mm 8 mps 692 mmHg 15%
    15:00 +28°C° 0 mm 7 mps 692 mmHg 14%
    16:00 +28°C° 0 mm 6 mps 692 mmHg 13%
    17:00 +28°C° 0 mm 4 mps 691 mmHg 12%
    18:00 +26°C° 0 mm 4 mps 691 mmHg 19%
    19:00 +22°C° 0 mm 5 mps 691 mmHg 25%
    20:00 +20°C° 0 mm 5 mps 691 mmHg 32%
    21:00 +19°C° 0 mm 5 mps 691 mmHg 35%
    22:00 +19°C° 0 mm 5 mps 692 mmHg 38%
    23:00 +17°C° 0 mm 5 mps 692 mmHg 41%

    Day after tomorrow, 25 August, Friday

    Time Temperature Precipitation Wind Pressure Humidity
    00:00 +17°C° 0 mm 5 mps 692 mmHg 49%
    01:00 +16°C° 0 mm 5 mps 692 mmHg 57%
    02:00 +15°C° 0 mm 5 mps 692 mmHg 65%
    03:00 +14°C° 0 mm 4 mps 692 mmHg 68%
    04:00 +13°C° 0 mm 4 mps 692 mmHg 72%
    05:00 +12°C° 0 mm 3 mps 692 mmHg 75%
    06:00 +12°C° 0 mm 4 mps 693 mmHg 75%
    07:00 +13°C° 0 mm 5 mps 694 mmHg 74%
    08:00 +13°C° 0 mm 5 mps 695 mmHg 74%
    09:00 +13°C° 0 mm 6 mps 695 mmHg 70%
    10:00 +14°C° 0 mm 6 mps 696 mmHg 66%
    11:00 +14°C° 0 mm 6 mps 697 mmHg 62%
    12:00 +14°C° 0 mm 7 mps 697 mmHg 58%
    13:00 +15°C° 0 mm 7 mps 697 mmHg 54%
    14:00 +15°C° 0 mm 8 mps 697 mmHg 50%
    15:00 +14°C° 0 mm 7 mps 697 mmHg 53%
    16:00 +12°C° 0 mm 7 mps 697 mmHg 56%
    17:00 +11°C° 0 mm 7 mps 698 mmHg 60%
    18:00 +10°C° 0 mm 6 mps 698 mmHg 65%
    19:00 +9°C° 0 mm 5 mps 699 mmHg 71%
    20:00 +8°C° 0 mm 4 mps 699 mmHg 76%
    21:00 +8°C° 0 mm 4 mps 700 mmHg 78%
    22:00 +9°C° 0 mm 3 mps 700 mmHg 79%
    23:00 +9°C° 0 mm 3 mps 700 mmHg 80%

    26 August, Saturday

    Time Temperature Precipitation Wind Pressure Humidity
    00:00 +9°C° 0 mm 3 mps 700 mmHg 82%
    01:00 +8°C° 0 mm 2 mps 700 mmHg 83%
    02:00 +8°C° 0 mm 2 mps 700 mmHg 84%
    03:00 +8°C° 0 mm 2 mps 700 mmHg 83%
    04:00 +8°C° 0 mm 2 mps 700 mmHg 83%
    05:00 +7°C° 0 mm 2 mps 700 mmHg 83%
    06:00 +8°C° 0 mm 3 mps 701 mmHg 80%
    07:00 +8°C° 0 mm 3 mps 701 mmHg 76%
    08:00 +9°C° 0 mm 3 mps 702 mmHg 73%
    09:00 +12°C° 0 mm 3 mps 702 mmHg 61%
    10:00 +14°C° 0 mm 4 mps 702 mmHg 48%
    11:00 +18°C° 0 mm 4 mps 703 mmHg 36%
    12:00 +19°C° 0 mm 4 mps 702 mmHg 31%
    13:00 +20°C° 0 mm 4 mps 701 mmHg 26%
    14:00 +22°C° 0 mm 4 mps 701 mmHg 21%
    15:00 +22°C° 0 mm 4 mps 700 mmHg 20%
    16:00 +22°C° 0 mm 4 mps 700 mmHg 20%
    17:00 +21°C° 0 mm 4 mps 699 mmHg 19%
    18:00 +20°C° 0 mm 4 mps 699 mmHg 25%
    19:00 +18°C° 0 mm 4 mps 699 mmHg 30%
    20:00 +15°C° 0 mm 5 mps 699 mmHg 35%
    21:00 +14°C° 0 mm 5 mps 699 mmHg 36%
    22:00 +14°C° 0 mm 4 mps 698 mmHg 37%
    23:00 +13°C° 0 mm 4 mps 698 mmHg 38%

    27 August, Sunday

    Time Temperature Precipitation Wind Pressure Humidity
    00:00 +13°C° 0 mm 4 mps 698 mmHg 40%
    01:00 +13°C° 0 mm 4 mps 698 mmHg 41%
    02:00 +13°C° 0 mm 5 mps 698 mmHg 43%
    03:00 +13°C° 0 mm 5 mps 697 mmHg 44%
    04:00 +12°C° 0 mm 5 mps 697 mmHg 46%
    05:00 +12°C° 0 mm 5 mps 697 mmHg 48%
    06:00 +13°C° 0 mm 5 mps 697 mmHg 47%
    07:00 +13°C° 0 mm 5 mps 697 mmHg 46%
    08:00 +13°C° 0 mm 5 mps 697 mmHg 45%
    09:00 +16°C° 0 mm 6 mps 698 mmHg 39%
    10:00 +18°C° 0 mm 7 mps 698 mmHg 33%
    11:00 +22°C° 0 mm 7 mps 698 mmHg 28%
    12:00 +22°C° 0 mm 7 mps 697 mmHg 26%
    13:00 +23°C° 0 mm 7 mps 697 mmHg 24%
    14:00 +24°C° 0 mm 7 mps 696 mmHg 23%
    15:00 +24°C° 0 mm 7 mps 696 mmHg 25%
    16:00 +24°C° 0 mm 6 mps 695 mmHg 26%
    17:00 +25°C° 0 mm 5 mps 695 mmHg 28%
    18:00 +22°C° 0 mm 5 mps 695 mmHg 36%
    19:00 +20°C° 0 mm 5 mps 695 mmHg 44%
    20:00 +17°C° 0 mm 5 mps 695 mmHg 52%
    21:00 +17°C° 0 mm 5 mps 695 mmHg 57%
    22:00 +17°C° 0 mm 6 mps 695 mmHg 62%
    23:00 +16°C° 0 mm 6 mps 695 mmHg 67%

    28 August, Monday

    Time Temperature Precipitation Wind Pressure Humidity
    00:00 +16°C° 0 mm 6 mps 695 mmHg 69%
    01:00 +15°C° 0 mm 6 mps 695 mmHg 71%
    02:00 +15°C° 0 mm 6 mps 695 mmHg 72%
    03:00 +15°C° 0 mm 6 mps 695 mmHg 75%
    04:00 +14°C° 0 mm 5 mps 694 mmHg 77%
    05:00 +14°C° 0 mm 5 mps 694 mmHg 79%
    06:00 +14°C° 0 mm 4 mps 695 mmHg 78%
    07:00 +15°C° 0 mm 4 mps 696 mmHg 76%
    08:00 +17°C° 0 mm 4 mps 696 mmHg 74%
    09:00 +18°C° 0 mm 4 mps 697 mmHg 67%
    10:00 +19°C° 0 mm 4 mps 697 mmHg 61%
    11:00 +21°C° 0 mm 4 mps 697 mmHg 55%
    12:00 +21°C° 0 mm 4 mps 697 mmHg 53%
    13:00 +21°C° 0 mm 4 mps 697 mmHg 52%
    14:00 +21°C° 0 mm 4 mps 696 mmHg 51%
    15:00 +21°C° 0 mm 5 mps 696 mmHg 51%
    16:00 +21°C° 0 mm 5 mps 696 mmHg 52%
    17:00 +21°C° 0 mm 5 mps 696 mmHg 52%
    18:00 +20°C° 0 mm 6 mps 697 mmHg 60%
    19:00 +19°C° 0 mm 6 mps 697 mmHg 67%
    20:00 +16°C° 0 mm 7 mps 698 mmHg 74%
    21:00 +16°C° 0.1 mm 6 mps 698 mmHg 78%
    22:00 +16°C° 0.1 mm 5 mps 698 mmHg 81%
    23:00 +16°C° 0.1 mm 5 mps 698 mmHg 85%
    Show more